Wind from 116 at 0 knots gusting 2

Air temperature 16.7° C
Dewpoint 9.8° C

Last reported at 2014-Apr-23 23:03 UTC.
Time now 2014-Apr-24 06:23 UTC

Location: N 40°31' E 022°58'.
View on Google Maps.

See reports from other nearby stations

Tides Stations Pressure Air Temp Water Temp Dewpoint Dewpoint depression Visibility Wind Speed Wind Dir Waves Ship positions

  
sailing weather and tide predictions

DW2373 Thessaloniki GR weather

date/time (UTC)wind fromknots sea level pressurealtimeterstation pressurevisibilityair tempwater tempwave heightnotes
2014-Apr-23 23:03 116 0 gusting 2 16.7
2014-Apr-23 22:03 079 0 gusting 4 16.7
2014-Apr-23 21:03 065 17.2
2014-Apr-23 20:03 294 1 gusting 2 17.2
2014-Apr-23 19:03 329 2 gusting 5 17.8
2014-Apr-23 18:03 202 0 gusting 4 18.3
2014-Apr-23 17:03 078 1 gusting 2 18.3
2014-Apr-23 16:03 353 1 gusting 4 18.9
2014-Apr-23 15:03 270 0 gusting 5 18.9
2014-Apr-23 14:03 302 1 gusting 6 19.4
2014-Apr-23 13:03 049 0 gusting 6 19.4
2014-Apr-23 12:03 234 20.0
2014-Apr-23 11:03 277 0 gusting 5 20.0
2014-Apr-23 10:03 314 0 gusting 4 20.0
2014-Apr-23 09:03 240 1 gusting 2 20.0
2014-Apr-23 08:03 236 0 gusting 2 18.9
2014-Apr-23 07:03 315 0 gusting 2 18.3
2014-Apr-22 23:03 132 0 gusting 5 16.7
2014-Apr-22 22:03 223 2 gusting 5 16.7
2014-Apr-22 21:03 204 16.7
2014-Apr-22 20:03 050 0 gusting 2 17.2
2014-Apr-22 19:03 355 17.2
2014-Apr-22 18:03 281 0 gusting 4 17.8
2014-Apr-22 17:03 150 2 gusting 4 17.8
2014-Apr-22 16:03 206 18.9
2014-Apr-22 15:03 232 2 gusting 4 19.4
2014-Apr-22 14:03 237 20.6
2014-Apr-22 13:03 273 0 gusting 4 21.7
2014-Apr-22 12:03 283 1 gusting 4 21.7
2014-Apr-22 11:03 264 1 gusting 5 21.7
2014-Apr-22 10:03 20.6
2014-Apr-22 09:03 223 3 gusting 5 20.0
2014-Apr-22 08:03 294 0 gusting 2 19.4
2014-Apr-22 07:03 214 0 gusting 2 18.9